AFR770 LFPG-TFFR

Flight info

Callsign AFR770
Flight time N/A
Altitude 34000
Route LGL UN491 UPALO/N0473F350 UN585 FEJAC DCT BADUR DCT REGHI/M082F340 DCT ETIKI DCT 47N015W 46N020W 40N030W/M082F360 33N040W/M082F380 29N045W 25N050W 21N055W DCT BNJEE/N0468F380 DCT BOSET BOSET2A
Aircraft B77W/H-SDE1E2E3FGHIJ2J3J4J5M1RWXY/LB1D1

Departure

Time 2026-05-08 14:47
Airport Charles de Gaulle International Airport (LFPG)

Arrival

Time N/A
Airport Maryse Condé International Airport (TFFR)
Time Latitude Longitude Altitude Speed Heading
2026-05-08 14:12 49.00132 2.58654 359 ft 0 kts 281°
2026-05-08 14:13 49.00133 2.58648 365 ft 0 kts 281°
2026-05-08 14:13 49.00134 2.58649 365 ft 0 kts 281°
2026-05-08 14:34 49.00131 2.58671 364 ft 4 kts 273°
2026-05-08 14:34 49.00133 2.58711 367 ft 4 kts 247°
2026-05-08 14:34 49.00148 2.58742 368 ft 4 kts 212°
2026-05-08 14:34 49.00172 2.58757 364 ft 4 kts 187°
2026-05-08 14:35 49.00199 2.58758 362 ft 4 kts 176°
2026-05-08 14:35 49.00207 2.58757 361 ft 0 kts 175°
2026-05-08 14:38 49.00205 2.58758 361 ft 1 kts 175°
2026-05-08 14:38 49.00185 2.58760 364 ft 4 kts 175°
2026-05-08 14:38 49.00157 2.58763 359 ft 5 kts 175°
2026-05-08 14:38 49.00118 2.58768 359 ft 6 kts 175°
2026-05-08 14:39 49.00079 2.58761 362 ft 6 kts 197°
2026-05-08 14:39 49.00047 2.58722 365 ft 7 kts 234°
2026-05-08 14:39 49.00030 2.58635 365 ft 11 kts 261°
2026-05-08 14:39 49.00022 2.58522 359 ft 11 kts 265°
2026-05-08 14:40 49.00016 2.58404 366 ft 12 kts 266°
2026-05-08 14:40 49.00009 2.58271 363 ft 13 kts 264°
2026-05-08 14:40 49.00002 2.58130 367 ft 13 kts 265°
2026-05-08 14:40 48.99994 2.57989 361 ft 13 kts 265°
2026-05-08 14:41 48.99986 2.57847 365 ft 13 kts 265°
2026-05-08 14:41 48.99978 2.57705 361 ft 13 kts 265°
2026-05-08 14:41 48.99970 2.57559 359 ft 16 kts 265°
2026-05-08 14:41 48.99960 2.57384 365 ft 17 kts 265°
2026-05-08 14:42 48.99951 2.57206 364 ft 17 kts 265°
2026-05-08 14:42 48.99942 2.57028 365 ft 17 kts 265°
2026-05-08 14:42 48.99932 2.56849 359 ft 17 kts 265°
2026-05-08 14:42 48.99922 2.56658 359 ft 18 kts 265°
2026-05-08 14:43 48.99913 2.56464 365 ft 18 kts 265°
2026-05-08 14:43 48.99904 2.56270 363 ft 18 kts 266°
2026-05-08 14:43 48.99894 2.56095 359 ft 10 kts 260°
2026-05-08 14:43 48.99850 2.56025 368 ft 8 kts 195°
2026-05-08 14:44 48.99811 2.55995 366 ft 7 kts 231°
2026-05-08 14:44 48.99796 2.55929 364 ft 7 kts 256°
2026-05-08 14:44 48.99781 2.55862 366 ft 7 kts 245°
2026-05-08 14:44 48.99743 2.55819 366 ft 7 kts 199°
2026-05-08 14:45 48.99684 2.55815 361 ft 10 kts 175°
2026-05-08 14:45 48.99627 2.55825 360 ft 7 kts 163°
2026-05-08 14:45 48.99609 2.55851 367 ft 2 kts 116°
2026-05-08 14:45 48.99606 2.55883 365 ft 4 kts 96°
2026-05-08 14:46 48.99606 2.55930 361 ft 3 kts 86°
2026-05-08 14:46 48.99611 2.56031 359 ft 23 kts 85°
2026-05-08 14:46 48.99640 2.56568 366 ft 85 kts 85°
2026-05-08 14:46 48.99700 2.57700 365 ft 125 kts 85°
2026-05-08 14:47 48.99779 2.59191 360 ft 160 kts 85°
2026-05-08 14:47 48.99876 2.61030 507 ft 179 kts 85°
2026-05-08 14:47 48.99986 2.62986 850 ft 186 kts 84°
2026-05-08 14:47 49.00093 2.64912 1439 ft 186 kts 85°
2026-05-08 14:48 49.00199 2.66884 1951 ft 187 kts 85°
2026-05-08 14:48 49.00302 2.68867 2372 ft 193 kts 85°
2026-05-08 14:48 49.00406 2.70880 2873 ft 192 kts 85°
2026-05-08 14:48 49.00512 2.72898 3353 ft 189 kts 85°
2026-05-08 14:49 49.00615 2.74894 3788 ft 191 kts 85°
2026-05-08 14:49 49.00718 2.76936 4072 ft 192 kts 85°
2026-05-08 14:49 49.00774 2.78956 4198 ft 197 kts 97°
2026-05-08 14:49 49.00473 2.81087 4412 ft 217 kts 102°
2026-05-08 14:50 49.00159 2.83481 4616 ft 245 kts 100°
2026-05-08 14:50 48.99860 2.86114 5056 ft 262 kts 99°
2026-05-08 14:50 48.99564 2.88881 5822 ft 268 kts 99°
2026-05-08 14:50 48.99271 2.91699 6670 ft 271 kts 99°
2026-05-08 14:51 48.98956 2.94546 7402 ft 274 kts 105°
2026-05-08 14:51 48.98040 2.97093 7951 ft 280 kts 139°
2026-05-08 14:51 48.96342 2.98436 8702 ft 278 kts 172°
2026-05-08 14:51 48.94425 2.98283 9486 ft 279 kts 198°
2026-05-08 14:52 48.92708 2.96942 10255 ft 280 kts 220°
2026-05-08 14:52 48.90524 2.91703 10860 ft 322 kts 251°
2026-05-08 14:52 48.89860 2.88368 11050 ft 347 kts 253°
2026-05-08 14:53 48.89201 2.84746 11552 ft 361 kts 254°
2026-05-08 14:53 48.88523 2.81034 12321 ft 368 kts 254°
2026-05-08 14:53 48.87848 2.77259 13193 ft 372 kts 254°
2026-05-08 14:53 48.87145 2.73465 14111 ft 375 kts 253°
2026-05-08 14:54 48.86402 2.69652 14920 ft 378 kts 252°
2026-05-08 14:54 48.85627 2.65818 15694 ft 382 kts 252°
2026-05-08 14:54 48.84826 2.61943 16468 ft 387 kts 252°
2026-05-08 14:54 48.84019 2.58077 17165 ft 392 kts 252°
2026-05-08 14:55 48.83189 2.54113 17951 ft 396 kts 252°
2026-05-08 14:55 48.82351 2.50116 18681 ft 400 kts 252°
2026-05-08 14:55 48.81502 2.46081 19375 ft 403 kts 253°
2026-05-08 14:55 48.80728 2.41976 20056 ft 406 kts 258°
2026-05-08 14:56 48.80260 2.37749 20723 ft 408 kts 264°
2026-05-08 14:56 48.80057 2.33449 21394 ft 410 kts 270°
2026-05-08 14:56 48.80067 2.29112 22067 ft 413 kts 272°
2026-05-08 14:56 48.80088 2.24854 22744 ft 415 kts 272°
2026-05-08 14:57 48.80108 2.20465 23396 ft 418 kts 272°
2026-05-08 14:57 48.80123 2.16104 23965 ft 420 kts 273°